This is the latest recevied weather packets stored in our database for station/object N1ORT. If no packets are shown the sender has not sent any weather packets the latest 10 day(s).
| Time | Temp. | Humidity | Pressure | Rain* | Wind** | Luminosity | Snow |
|---|---|---|---|---|---|---|---|
| 1777121475 | 7.78° C | 49% | 1017.6 hPa | 0 mm | - | 381 W/m² | - |
| 1777121175 | 7.22° C | 52% | 1017.8 hPa | 0 mm | - | 486 W/m² | - |
| 1777120873 | 7.78° C | 51% | 1017.7 hPa | 0 mm | - | 475 W/m² | - |
| 1777120569 | 7.78° C | 55% | 1017.8 hPa | 0 mm | - | 326 W/m² | - |
| 1777120264 | 6.67° C | 55% | 1017.8 hPa | 0 mm | - | 415 W/m² | - |
| 1777119959 | 6.67° C | 58% | 1017.9 hPa | 0 mm | - | 409 W/m² | - |
| 1777119656 | 6.67° C | 58% | 1017.7 hPa | 0 mm | - | 368 W/m² | - |
| 1777119352 | 6.11° C | 62% | 1017.9 hPa | 0 mm | - | 297 W/m² | - |
| 1777119047 | 5.56° C | 69% | 1017.7 hPa | 0 mm | - | 214 W/m² | - |
| 1777118742 | 4.44° C | 83% | 1017.8 hPa | 0 mm | - | 129 W/m² | - |
| 1777118439 | 3.89° C | 94% | 1017.7 hPa | 0 mm | - | 109 W/m² | - |
| 1777118135 | 3.33° C | 97% | 1017.8 hPa | 0 mm | - | 109 W/m² | - |
| 1777117831 | 2.78° C | 98% | 1017.6 hPa | 0 mm | - | 76 W/m² | - |
| 1777117528 | 1.67° C | 98% | 1017.4 hPa | 0 mm | - | 92 W/m² | - |
| 1777117227 | 1.67° C | 98% | 1017.6 hPa | 0 mm | - | 41 W/m² | - |
| 1777116926 | 1.11° C | 99% | 1017.4 hPa | 0 mm | - | 39 W/m² | - |
| 1777116622 | 0.56° C | 99% | 1017.4 hPa | 0 mm | - | 37 W/m² | - |
| 1777116318 | 0.56° C | 99% | 1017 hPa | 0 mm | - | 37 W/m² | - |
| 1777116013 | 0° C | 99% | 1017.2 hPa | 0 mm | - | 44 W/m² | - |
| 1777115709 | 0° C | 99% | 1017.3 hPa | 0 mm | - | 39 W/m² | - |
| 1777115404 | 0° C | 99% | 1017.1 hPa | 0 mm | - | 64 W/m² | - |
| 1777115101 | -0.56° C | 99% | 1017.2 hPa | 0 mm | - | 42 W/m² | - |
| 1777114798 | -0.56° C | 99% | 1017 hPa | 0 mm | - | 38 W/m² | - |
| 1777114493 | -0.56° C | 99% | 1017 hPa | 0 mm | - | 33 W/m² | - |
| 1777114189 | -1.11° C | 99% | 1017.2 hPa | 0 mm | - | 39 W/m² | - |
* Rain latest hour (hover to see other rain measurements)
** Current wind speed in m/s (hover to see current wind gust speed)